Location: Saluda
(35.2377°N, 82.3468°W)
Time: 22:42:40
(UTC+00:00)

Tiros 1 - Pass Details

Date: 09 October 2022
Orbit: 629 x 662 km, 48.4° (Epoch: 08 December)

Event Time Altitude Azimuth Distance (km) Brightness Sun altitude
Exits shadow 09:06:42 19° 142° (SE) 1,544 9.3 -30.0°
Drops below altitude 10° 09:08:01 10° 139° (SE) 2,035 10.0 -29.7°
Sets 09:10:20 0° 137° (SE) 2,936 10.9 -29.3°
